Regional Weather Roundup
Issued by NWS Wakefield, VA

Home | Current Version | Previous Version | Text Only | Print | Product List | Glossary Off
Versions: 1 2 3 4 5 6 7 8 9 10 11 12 13 14 15 16 17 18 19 20 21 22 23 24 25 26 27

000
ASUS41 KAKQ 241515
RWRAKQ

REGIONAL WEATHER ROUNDUP
NATIONAL WEATHER SERVICE WAKEFIELD VA
1100 AM EDT TUE APR 24 2018

Note: "fair" indicates few or no clouds below 12,000 feet with no
significant weather and/or obstructions to visibility. * = Denotes
station may not report precipitation (e.g., rain,snow,etc.),
thunder or fog.

VAZ042-051-052>054-056-241600-
NORTHERN VIRGINIA

CITY           SKY/WX    TMP DP  RH WIND       PRES   REMARKS
WASH NATIONAL  CLOUDY    61  46  57 SE13G21   30.26F
DULLES         CLOUDY    59  46  62 SE18G25   30.24S
FORT BELVOIR   NOT AVBL
QUANTICO       LGT RAIN  60  50  69 SE15      30.24F
FREDERICKSBRG* LGT RAIN  55  52  90 E8        30.22S
STAFFORD*      LGT RAIN  56  55  97 E10       30.26S
WARRENTON      RAIN      56  48  73 E7        30.23S
CULPEPER*      LGT RAIN  56  50  80 E6        30.23F
MANASSAS*      LGT RAIN  58  48  69 SE14      30.24S
LEESBURG*      CLOUDY    59  46  63 SE10G16   30.25F
WINCHESTER     DRIZZLE   48  46  93 CALM      30.25S
FRONT ROYAL*   CLOUDY    48  48 100 NW3       30.22F
LURAY*         DRIZZLE   50  48  93 NW5       30.20F
$$

VAZ048-049-060>072-079>083-241600-
CENTRAL AND SOUTH CENTRAL VIRGINIA

CITY           SKY/WX    TMP DP  RH WIND       PRES   REMARKS
RICHMOND       RAIN      56  56 100 E17       30.17F FOG
CHESTERFIELD*  LGT RAIN  56  54  93 E12G17    30.16F
PETERSBURG*    LGT RAIN  56  54  91 E10G17    30.15F
HANOVER        LGT RAIN  56  55  97 E6        30.20F FOG
TAPPAHANNOCK*  LGT RAIN  58  53  85 E10       30.22F
QUINTON*       CLOUDY    55  55 100 E8G33     30.18F
CHARLOTTSVILLE LGT RAIN  53  51  93 NE12      30.18F FOG
GORDONSVILLE*  CLOUDY    53  53 100 E5        30.19F
ORANGE*        RAIN      52  50  93 E8        30.21S
LOUISA*        RAIN      53  52  95 E9        30.22F FOG
BUMPASS*       CLOUDY    53  52  95 E6        30.19F
FARMVILLE*     LGT RAIN N/A N/A N/A E9G16     30.10F
CREWE*         CLOUDY    56  56 100 E10G18    30.11F
FORT PICKETT*  CLOUDY    56  56 100 E9        30.11F
CHASE CITY*    CLOUDY    57  57 100 E7G17     30.06F
CLARKSVILLE*   CLOUDY    57  57 100 E14G22    30.05S
SOUTH HILL*    CLOUDY    56  56 100 E5        30.14F
LAWRENCEVILLE* CLOUDY    57  56  97 E10G20    30.10F
EMPORIA*       LGT RAIN  57  55  94 E13G21    30.13F
$$

VAZ088>098-241600-
SOUTHEAST VIRGINIA

CITY           SKY/WX    TMP DP  RH WIND       PRES   REMARKS
NORFOLK        LGT RAIN  58  54  86 SE12G23   30.17F
VIRGINIA BEACH LGT RAIN  56  54  93 E17       30.17F
NORFOLK NAVAL  LGT RAIN  58  53  84 SE14G24   30.19F
WEST POINT*    CLOUDY    56  53  87 E14G20    30.21F
SALUDA*        CLOUDY    56  53  89 SE8       30.22F
NEWPORT NEWS   LGT RAIN  57  52  83 E15G21    30.19F
LANGLEY AFB    LGT RAIN  56  53  90 E15       30.18F
FORT EUSTIS    LGT RAIN  57  53  87 E10G21    30.16F
WILLIAMSBURG*  FAIR      57  55  94 E9G22     30.19F
HR EXEC AP*    CLOUDY    58  56  93 E12G18    30.18F FOG
FRANKLIN*      DRIZZLE   58  57  97 E15       30.15F
US460-WAKEFLD  LGT RAIN  57  56  96 E8        30.16F FOG
$$

VAZ020-022-025-037-045-241600-
WEST CENTRAL AND SOUTHWEST VIRGINIA

CITY           SKY/WX    TMP DP  RH WIND       PRES   REMARKS
STAUNTON*      DRIZZLE   52  49  90 E10       30.17F
WAYNESBORO*    CLOUDY    51  50  98 E9G17     30.14F
HOT SPRINGS VA HVY RAIN  42  42 100 E15G28    30.08F VSB<1/4
LYNCHBURG      LGT RAIN  52  50  93 NE15G21   30.08F FOG
DANVILLE       CLOUDY    56  56 100 VRB7      30.02F
SOUTH BOSTON*  CLOUDY    57  56  94 E6G17     30.04F
MARTINSVILLE   DRIZZLE   51  50  97 N5        30.04F
ROANOKE        LGT RAIN  52  51  97 VRB5      30.08F FOG
BLACKSBURG     DRIZZLE   50  49  96 E15G24    30.06S
DUBLIN*        LGT RAIN  50  49  97 E15G21    30.03F
MARION*        LGT RAIN  50  50  99 E10G22    30.01S
HILLSVILLE*    DRIZZLE   49  48  97 E12G21    29.98F
RICHLANDS*     CLOUDY    53  16  23 E13G24    29.95F
WISE*          PTSUNNY   57  50  77 SE5G16    29.94S
ABINGDON*      CLOUDY    59  51  77 E15       29.94R
$$

MDZ021>025-VAZ099-100-241600-
SOUTHERN MARYLAND AND THE DELMARVA PENINSULA

CITY           SKY/WX    TMP DP  RH WIND       PRES   REMARKS
PATUXENT RIVER CLOUDY    61  50  67 E12       30.25S
BAY BRIDGE APT FAIR      63  48  59 SE18      30.27S
LEONARDTOWN    CLOUDY    59  46  63 E10G17    30.27S
DOVER          PTSUNNY   58  48  68 E14G22    30.31F
GEORGETOWN     FAIR      61  48  62 SE16G23   30.31F
EASTON         CLOUDY    63  46  55 SE9G21    30.31F
CAMBRIDGE      SUNNY     63  48  59 SE15G26   30.27S
SALISBURY      FAIR      62  48  60 E14G24    30.28S
TANGIER        PTSUNNY   59  52  77 E15G22    30.24S
OCEAN CITY     FAIR      55  50  83 E14       30.31S
WALLOPS ISLAND FAIR      61  49  64 E21G28    30.27F
ACCOMACK*      CLOUDY    59  49  69 E14G22    30.24F
$$

NCZ012>017-030>032-241600-
NORTH CENTRAL AND EASTERN NORTH CAROLINA

CITY           SKY/WX    TMP DP  RH WIND       PRES   REMARKS
ROANOKE RAPIDS HVY RAIN  59  59 100 E8        30.09F
RALEIGH        LGT RAIN  58  57  97 E18G28    30.00R
ELIZABETH CITY LGT RAIN  60  59  96 E18G28    30.16S FOG
AHOSKIE*       HVY RAIN  58  58 100 E6        30.12S
EDENTON*       RAIN      62  60  93 E9G21     30.14S
CURRITUCK*     NOT AVBL
KILL DEVIL HLS LGT RAIN  56  55  97 E9G17     30.15S
MANTEO         CLOUDY    58  56  93 SE14G23   30.16S
CAPE HATTERAS  RAIN      63  60  90 SE33G40   30.11F FOG
TARBORO*       NOT AVBL
GOLDSBORO      LGT RAIN  60  58  94 E16G29    29.92F
WASHINGTON     RAIN      61  59  95 E17       30.06F
GREENVILLE     RAIN      61  59  94 SE12G20   30.08S
NEW BERN       RAIN      60  60 100 SE15G29   30.04S FOG
WILMINGTON     LGT RAIN  62  60  93 SE10      29.98S
$$

VAZ048-241600-
ELSEWHERE

CITY           SKY/WX    TMP DP  RH WIND       PRES   REMARKS
HARRISBURG PA  FAIR      61  44  53 SE20      30.28F
BALTIMORE      CLOUDY    60  47  61 E14       30.27F
ANNAPOLIS      PTSUNNY   60  52  74 SE13      30.27F
ANDREWS AFB    FAIR      60  46  59 E10G25    30.24F
PHILADELPHIA   PTSUNNY   63  43  48 SE16G24   30.34F
HENDERSON NC   LGT RAIN  55  53  93 E15       30.04S
GREENSBORO     DRIZZLE   57  57 100 E8        29.96F FOG
ROCKY MOUNT    RAIN      59  57  93 VRB7G23   30.05F FOG
$$

VAZ100-241600-
MARINE

STATION/POSITION TIME  TEMP    WIND        PRES    WAVE   SWELL
                       AIR SEA DIR/SP/G            HT/PER HT/PER
                 (UTC) (F)     (DEG/KT/KT) (MB)    (FT/S) (FT/S)
BRANDYWINE LGT   1442   55     120/ 22/ 27 1026.9F
CAPE MAY NJ      1442   54 51  110/ 17/ 20 1026.4F
LEWES DE         1442   54 51  110/ 17/ 24 1026.4F
15NM E FENWICK I 1450   50 47   80/ 16/ 17 1026.9S   3/ 5   2/ 7
OCEAN-CITY-INLET 1442   54 51  120/  9/ 13 1026.8F
WACHAPREAGUE VA  1442   56 56  110/ 13/ 19 1024.5S
GOOSES REEF MD   1500   58     120/ 14/ 17 1025.0
COVE POINT MD    1442   58     140/ 14/ 20 1025.1F
SOLOMONS ISLAND  1442   56 53  100/ 11/ 14 1024.2S
BISHOPS HEAD MD  1442   60 56  110/ 19/ 22 1024.7F
PINEY POINT MD   1436          130/ 17/ 18   N/A
POTOMAC MD       1500   56 53  120/ 14/ 16 1025.3    2/ 3
CAMBRIDGE MD     1442   61 55              1025.7F
LEWISETTA VA     1442   55 54  120/ 13/ 17 1023.9F
RAPPAHANNOCK LGT 1436          100/ 22/ 25 1024.1S
STINGRAY PT      1400   57 55  140/ 16/ 17 1024.9    3/ 3
YORK RVR RNG VA  1436   56     120/ 22/ 25 1023.0F
YORKTOWN VA      1436   57 56  120/ 15/ 18 1022.3F
DOMINION TERM VA 1436   58     110/ 14/ 19 1022.3F
KIPTOPEKE VA     1436      54  120/ 14/ 20   N/A
CAPE HENRY VA    1436   55     100/ 19/ 22   N/A
WILLOUBY STN VA  1436   57     110/ 14/ 16 1022.0F
S CRANEY ISL VA  1436   58     120/ 13/ 19 1021.8F
CAPE HENRY BUOY  1430      51                N/A     6/ 8
1ST LANDING BUOY 1400   55 53  130/ 17/ 19 1023.1    3/ 4
64NM E OF VA BCH 1450   55 50  110/ 14/ 16 1023.4F   8/ 7   5/14
DUCK PIER NC     1436   56 54  100/ 24/ 26 1020.9F
44100 DUCK FRF   1445      51                N/A     7/ 8   2/11
44056 DUCK FRF   1430      52                N/A     6/ 8
OREGON INLET NC  1436   56 54  100/ 12/ 16 1020.8S
HATTERAS NC      1436   63 62  140/ 22/ 30 1019.2S
DIAMOND SHLS NC  1500   66 72  130/ 31/ 39 1019.5
$$




USA.gov is the U.S. government's official web portal to all federal, state and local government web resources and services.